Tracking 35048 objects as of 19-Aug-2026
HD Live streaming from Space Station
objects crossing your sky now

AYAME 1 (ECS 1)

Track AYAME 1 (ECS 1) now!
AYAME 1 (ECS 1) is classified as:


NORAD ID: 11261
Int'l Code: 1979-009A
Launch date: February 6, 1979
Source: Japan (JPN)
Launch site: TANEGASHIMA SPACE CENTER (TNSTA)
Your satellite tracking list
Your tracking list is empty




NASA's NSSDC Master Catalog

Two Line Element Set (TLE):
1 11261U 79009A   26230.58777251 -.00000097  00000-0  00000-0 0  9998
2 11261   9.5243 300.4502 3676874 148.6407 267.5269  1.68584240177214
Source of the keplerian elements: AFSPC